Le nostre stazioni meteo in Italia

Pubblicità
Il mio iltempo24.it
Grazzanise, Italia (16253): Temperatura & dewpoint: 19.04.2018 20:00:00 - 25.04.2018 20:00:00 (CEST)Grazzanise, Italia (16253): velocità del vento: 19.04.2018 20:00:00 - 25.04.2018 20:00:00 (CEST)Grazzanise, Italia (16253): direzione del vento: 19.04.2018 20:00:00 - 25.04.2018 20:00:00 (CEST)Grazzanise, Italia (16253): reduced air pressure: 19.04.2018 20:00:00 - 25.04.2018 20:00:00 (CEST)Grazzanise, Italia (16253): visibility: 19.04.2018 20:00:00 - 25.04.2018 20:00:00 (CEST)Grazzanise, Italia (16253): ore di luce: 19.04.2018 20:00:00 - 25.04.2018 20:00:00 (CEST)
Data & Tempo tt [°C] td [°C] ff [km/h] ff [kn] dd ppp [hPa] vv [km] sd [min]
25.04.2018 20:00:00 17,4 15,9 9 5 OSO 1016,2 10 -
25.04.2018 19:00:00 20,0 17,0 - - - - 10 -
25.04.2018 18:00:00 20,0 15,0 - - - - 10 -
25.04.2018 17:00:00 22,0 16,3 - - - 1016,4 10 -
25.04.2018 16:00:00 23,0 15,0 - - - - 10 -
25.04.2018 15:00:00 23,0 14,0 - - - - 10 -
25.04.2018 14:00:00 23,4 14,7 11 6 OSO 1017,8 10 60
25.04.2018 13:00:00 23,0 17,0 - - - - 10 -
25.04.2018 12:00:00 22,0 18,0 - - - - 8 -
25.04.2018 11:00:00 21,6 18,0 5 3 O 1018,9 8 60
25.04.2018 10:00:00 20,0 17,0 - - - - 8 -
25.04.2018 09:00:00 18,0 15,0 - - - - 6 -
25.04.2018 08:00:00 15,0 12,5 4 2 ENE 1018,3 4,0 12
25.04.2018 07:00:00 15,0 12,0 - - - - 3,0 -
25.04.2018 06:00:00 14,0 12,0 - - - - 2,0 -
25.04.2018 05:00:00 14,4 11,9 4 2 E 1018,5 2,0 -
25.04.2018 04:00:00 13,0 11,0 - - - - 1,5 -
25.04.2018 03:00:00 13,0 11,0 - - - - 0,5 -
25.04.2018 02:00:00 13,4 11,5 4 2 NNE 1019,2 0,5 -
25.04.2018 01:00:00 13,0 12,0 - - - - 3,0 -
25.04.2018 00:00:00 14,0 12,0 - - - - 5 -
24.04.2018 23:00:00 15,0 13,4 4 2 E 1019,2 15 -
24.04.2018 22:00:00 16,0 14,0 - - - - 10 -
24.04.2018 21:00:00 16,0 15,0 - - - - 10 -
24.04.2018 20:00:00 17,4 16,6 9 5 SSO 1018,8 15 12
24.04.2018 19:00:00 19,0 16,0 - - - - 10 -
24.04.2018 18:00:00 20,0 16,0 - - - - 10 -
24.04.2018 17:00:00 21,2 16,6 16 9 OSO 1019,2 12 60
24.04.2018 16:00:00 22,0 17,0 - - - - 10 -
24.04.2018 15:00:00 22,0 19,0 - - - - 10 -
24.04.2018 14:00:00 21,2 18,2 11 6 SO 1020,2 10 54
24.04.2018 13:00:00 21,0 18,0 - - - - 7 -
24.04.2018 12:00:00 21,0 19,0 - - - - 6 -
24.04.2018 11:00:00 20,4 18,0 11 6 SO 1019,5 5 0
24.04.2018 10:00:00 19,0 17,0 - - - - 4,0 -
24.04.2018 09:00:00 18,0 15,0 - - - - 3,5 -
24.04.2018 08:00:00 16,6 14,1 8 4 ENE 1019,5 3,0 0
24.04.2018 07:00:00 17,0 14,0 - - - - 3,0 -
24.04.2018 06:00:00 17,0 15,0 - - - - 3,0 -
24.04.2018 05:00:00 16,6 14,2 5 3 ENE 1018,2 3,0 -
24.04.2018 04:00:00 16,0 13,0 - - - - 4,0 -
24.04.2018 03:00:00 14,0 12,0 - - - - 6 -
24.04.2018 02:00:00 14,6 12,1 8 4 ENE 1018,3 10 -
24.04.2018 01:00:00 15,0 13,0 - - - - 10 -
24.04.2018 00:00:00 15,0 13,0 - - - - 10 -
23.04.2018 23:00:00 16,4 14,2 5 3 SSE 1018,2 15 -
23.04.2018 22:00:00 17,0 14,0 - - - - 10 -
23.04.2018 21:00:00 18,0 17,0 - - - - 10 -
23.04.2018 20:00:00 19,0 18,7 9 5 S 1017,2 15 -
23.04.2018 19:00:00 21,0 20,0 - - - - 10 -
23.04.2018 18:00:00 22,0 20,0 - - - - 10 -
23.04.2018 17:00:00 22,0 20,3 18 10 SO 1017,2 8 60
23.04.2018 16:00:00 22,0 19,0 - - - - 8 -
23.04.2018 15:00:00 24,0 20,0 - - - - 8 -
23.04.2018 14:00:00 23,8 20,1 15 8 OSO 1018,1 8 60
23.04.2018 13:00:00 24,0 21,0 - - - - 8 -
23.04.2018 12:00:00 23,0 20,0 - - - - 7 -
23.04.2018 11:00:00 23,0 19,4 4 2 OSO 1019,0 6 48
23.04.2018 10:00:00 22,0 19,0 - - - - 5 -
23.04.2018 09:00:00 19,0 17,0 - - - - 4,0 -
23.04.2018 08:00:00 17,4 14,9 5 3 ENE 1018,8 3,0 12
23.04.2018 07:00:00 16,0 13,0 - - - - 3,8 -
23.04.2018 06:00:00 15,0 13,0 - - - - 2,0 -
23.04.2018 05:00:00 14,0 11,5 8 4 ESE 1018,6 2,0 -
23.04.2018 04:00:00 14,0 12,0 - - - - 2,0 -
23.04.2018 03:00:00 14,0 12,0 - - - - 2,0 -
23.04.2018 02:00:00 15,0 12,5 4 2 E 1018,6 3,0 -
23.04.2018 01:00:00 15,0 13,0 - - - - 3,0 -
23.04.2018 00:00:00 15,0 13,0 - - - - 3,0 -
22.04.2018 23:00:00 16,4 14,2 5 3 SSE 1018,9 4,0 -
22.04.2018 22:00:00 16,0 15,0 - - - - 5 -
22.04.2018 21:00:00 16,0 15,0 - - - - 3,0 -
22.04.2018 20:00:00 17,0 16,2 9 5 SO 1017,9 5 42
22.04.2018 19:00:00 21,0 20,0 - - - - 8 -
22.04.2018 18:00:00 21,0 20,0 - - - - 10 -
22.04.2018 17:00:00 23,0 21,3 18 10 OSO 1017,5 15 60
22.04.2018 16:00:00 23,0 21,0 - - - - 8 -
22.04.2018 15:00:00 23,0 20,0 - - - - 8 -
22.04.2018 14:00:00 23,0 19,4 21 11 SO 1018,2 8 60
22.04.2018 13:00:00 23,0 18,0 - - - - 8 -
22.04.2018 12:00:00 24,0 19,0 - - - - 8 -
22.04.2018 11:00:00 22,0 19,7 4 2 ONO 1018,5 5 48
22.04.2018 10:00:00 20,0 17,0 - - - - 3,0 -
22.04.2018 09:00:00 18,0 15,0 - - - - 1,8 -
22.04.2018 08:00:00 16,6 14,1 5 3 NE 1018,5 0,1 0
22.04.2018 07:00:00 15,0 13,0 - - - - - -
22.04.2018 06:00:00 15,0 13,0 - - - - 0,1 -
22.04.2018 05:00:00 15,0 12,5 4 2 E 1018,3 0,2 -
22.04.2018 04:00:00 14,0 12,0 - - - - 0,5 -
22.04.2018 03:00:00 14,0 12,0 - - - - 0,8 -
22.04.2018 02:00:00 15,0 12,5 2 1 NNO 1018,7 1,5 -
22.04.2018 01:00:00 15,0 13,0 - - - - 2,5 -
22.04.2018 00:00:00 14,0 12,0 - - - - 3,0 -
21.04.2018 23:00:00 14,6 12,5 8 4 N 1018,7 5 -
21.04.2018 22:00:00 17,0 15,0 - - - - 7 -
21.04.2018 21:00:00 17,0 17,0 - - - - 7 -
21.04.2018 20:00:00 18,6 18,1 9 5 S 1018,0 7 18
21.04.2018 19:00:00 20,0 19,0 - - - - 10 -
21.04.2018 18:00:00 21,0 19,0 - - - - 10 -
21.04.2018 17:00:00 21,4 18,4 18 10 OSO 1018,2 20 60
21.04.2018 16:00:00 22,0 20,0 - - - - 10 -
21.04.2018 15:00:00 23,0 19,0 - - - - 10 -
21.04.2018 14:00:00 23,0 19,0 16 9 OSO 1018,8 20 60
21.04.2018 13:00:00 23,0 19,0 - - - - 10 -
21.04.2018 12:00:00 23,0 17,0 - - - - 10 -
21.04.2018 11:00:00 22,2 13,0 4 2 O 1019,1 20 60
21.04.2018 10:00:00 19,0 14,0 - - - - 10 -
21.04.2018 09:00:00 17,0 13,0 - - - - 10 -
21.04.2018 08:00:00 12,8 10,4 5 3 NO 1019,1 20 30
21.04.2018 07:00:00 10,0 8,0 - - - - 10 -
21.04.2018 06:00:00 10,0 8,0 - - - - 10 -
21.04.2018 05:00:00 11,6 9,5 4 2 NE 1018,2 15 -
21.04.2018 04:00:00 12,0 10,0 - - - - 10 -
21.04.2018 03:00:00 12,0 10,0 - - - - 10 -
21.04.2018 02:00:00 12,0 10,1 4 2 S 1018,4 10 -
21.04.2018 01:00:00 13,0 12,0 - - - - 10 -
21.04.2018 00:00:00 14,0 13,0 - - - - 10 -
20.04.2018 23:00:00 14,4 13,3 5 3 NNE 1018,6 10 -
20.04.2018 22:00:00 16,0 15,0 - - - - 10 -
20.04.2018 21:00:00 17,0 16,0 - - - - 10 -
20.04.2018 20:00:00 20,0 15,9 15 8 SSO 1017,3 15 24
20.04.2018 19:00:00 22,0 16,0 - - - - 10 -
20.04.2018 18:00:00 23,0 16,0 - - - - 10 -
20.04.2018 17:00:00 23,4 16,7 18 10 O 1017,7 30 60
20.04.2018 16:00:00 24,0 16,0 - - - - 10 -
20.04.2018 15:00:00 26,0 16,0 - - - - 10 -
20.04.2018 14:00:00 26,4 16,1 11 6 ONO 1019,5 30 60
20.04.2018 13:00:00 26,0 13,0 - - - - 10 -
20.04.2018 12:00:00 25,0 13,0 - - - - 10 -
20.04.2018 11:00:00 22,4 14,8 4 2 N 1020,4 25 60
20.04.2018 10:00:00 20,0 15,0 - - - - 10 -
20.04.2018 09:00:00 17,0 14,0 - - - - 10 -
20.04.2018 08:00:00 12,8 11,2 8 4 NNO 1020,9 20 18
20.04.2018 07:00:00 11,0 11,0 - - - - 10 -
20.04.2018 06:00:00 12,0 12,0 - - - - 10 -
20.04.2018 05:00:00 13,6 12,0 4 2 - 1021,2 25 -
20.04.2018 04:00:00 13,0 12,0 - - - - 10 -
20.04.2018 03:00:00 14,0 13,0 - - - - 10 -
20.04.2018 02:00:00 14,2 12,2 5 3 N 1022,1 25 -
20.04.2018 01:00:00 15,0 13,0 - - - - 10 -
20.04.2018 00:00:00 15,0 13,0 - - - - 10 -
19.04.2018 23:00:00 15,6 12,9 5 3 ENE 1022,3 25 -
19.04.2018 22:00:00 16,0 14,0 - - - - 10 -
19.04.2018 21:00:00 16,0 15,0 - - - - 10 -
19.04.2018 20:00:00 20,4 14,7 9 5 ENE 1021,4 15 -

tt = Temperatura
td = dewpoint
ff = velocità del vento
dd = direzione del vento
ppp = reduced air pressure
vv = visibility
sd = ore di luce

Stazioni seguenti

WeatherPro
AMSI
MeteoEarth